Location: Seasalter
(51.3333°N, 1.0167°E)
Time: 04:14:41
(UTC+00:00)

ATLAS CENTAUR R/B - Pass Details

Date: 26 September 2023
Orbit: 462 x 604 km, 64.7° (Epoch: 29 November)

Event Time Altitude Azimuth Distance (km) Brightness Sun altitude
Rises 04:45:03 0° 318° (NW) 2,545 4.4 -10.6°
Reaches altitude 10° 04:48:11 10° 346° (NNW) 1,643 3.7 -10.1°
Maximum altitude 04:50:01 13° 17° (NNE) 1,442 3.8 -9.8°
Drops below altitude 10° 04:51:50 10° 47° (NE) 1,626 4.7 -9.5°
Sets 04:54:53 0° 76° (ENE) 2,495 7.1 -9.1°
